QPF
0.01 0.02 0.03 0.03 0.03 0.03 0.04 0.07 0.06 0.03 0.03 0.03 0.03 0.02 0.03 0.05 0.04 0.07 0.06 0.03 0.04 0.03 0.04 0.05 0.05 0.04 0.04 0.04 0.04 0.04 0.06 0.08 0.09 0.13 0.13 0.14 0.15 0.15 0.12 0.09 0.10 0.13 0.18 0.13 0.07 0.07 0.08 0.07 0.08
0.01 0.02 0.04 0.04 0.03 0.02 0.04 0.10 0.09 0.03 0.02 0.01 0.01 0.00 0.01 0.02 0.03 0.04 0.03 0.02 0.03 0.03 0.03 0.04 0.05 0.05 0.03 0.03 0.04 0.04 0.06 0.10 0.11 0.13 0.14 0.13 0.16 0.16 0.11 0.12 0.12 0.13 0.15 0.13 0.08 0.07 0.07 0.07 0.07
0.02 0.04 0.04 0.03 0.02 0.01 0.02 0.06 0.05 0.03 0.02 0.01 0.00 0.00 0.01 0.02 0.02 0.02 0.02 0.02 0.02 0.02 0.03 0.04 0.05 0.05 0.05 0.03 0.04 0.04 0.06 0.10 0.13 0.15 0.13 0.09 0.10 0.10 0.08 0.09 0.10 0.10 0.11 0.10 0.08 0.07 0.07 0.07 0.07
0.03 0.03 0.02 0.02 0.01 0.02 0.03 0.03 0.02 0.02 0.01 0.00 0.00 0.00 0.01 0.02 0.02 0.01 0.01 0.01 0.01 0.01 0.02 0.05 0.06 0.05 0.04 0.04 0.05 0.06 0.10 0.11 0.11 0.11 0.10 0.07 0.06 0.06 0.05 0.06 0.06 0.07 0.07 0.08 0.08 0.07 0.07 0.05 0.06
0.02 0.02 0.02 0.01 0.02 0.03 0.03 0.02 0.02 0.01 0.00 0.00 0.00 0.00 0.01 0.02 0.01 0.01 0.01 0.01 0.01 0.01 0.02 0.03 0.05 0.05 0.05 0.05 0.05 0.06 0.12 0.13 0.09 0.08 0.08 0.07 0.05 0.05 0.06 0.06 0.05 0.06 0.07 0.07 0.08 0.08 0.07 0.06 0.07
0.03 0.02 0.01 0.02 0.01 0.02 0.02 0.02 0.01 0.01 0.01 0.00 0.00 0.01 0.03 0.03 0.03 0.02 0.01 0.01 0.01 0.02 0.02 0.02 0.05 0.06 0.07 0.07 0.07 0.09 0.15 0.15 0.11 0.08 0.07 0.07 0.06 0.06 0.08 0.07 0.05 0.05 0.06 0.07 0.08 0.08 0.07 0.06 0.08
0.02 0.02 0.01 0.01 0.01 0.01 0.01 0.01 0.01 0.01 0.01 0.01 0.00 0.01 0.03 0.03 0.03 0.02 0.01 0.02 0.02 0.02 0.02 0.01 0.03 0.04 0.06 0.08 0.09 0.11 0.11 0.10 0.09 0.08 0.06 0.07 0.07 0.07 0.08 0.08 0.07 0.08 0.09 0.09 0.09 0.07 0.08 0.08 0.10
0.02 0.02 0.01 0.01 0.01 0.01 0.01 0.01 0.02 0.02 0.01 0.01 0.00 0.01 0.02 0.03 0.02 0.02 0.02 0.03 0.03 0.02 0.02 0.01 0.01 0.02 0.03 0.04 0.07 0.08 0.08 0.08 0.09 0.08 0.07 0.07 0.08 0.11 0.08 0.06 0.06 0.08 0.11 0.12 0.12 0.10 0.10 0.10 0.13
0.02 0.02 0.01 0.01 0.02 0.02 0.01 0.01 0.01 0.01 0.01 0.01 0.00 0.00 0.01 0.02 0.01 0.01 0.01 0.02 0.03 0.02 0.02 0.01 0.01 0.01 0.01 0.02 0.03 0.05 0.06 0.06 0.06 0.06 0.07 0.07 0.06 0.07 0.05 0.05 0.06 0.07 0.09 0.12 0.14 0.16 0.14 0.13 0.13
0.02 0.01 0.00 0.01 0.01 0.01 0.01 0.01 0.01 0.01 0.02 0.01 0.01 0.01 0.01 0.01 0.01 0.00 0.01 0.01 0.01 0.01 0.02 0.01 0.01 0.01 0.01 0.02 0.02 0.02 0.02 0.03 0.03 0.04 0.04 0.04 0.04 0.04 0.03 0.04 0.06 0.07 0.11 0.12 0.13 0.17 0.17 0.13 0.10
0.04 0.01 0.01 0.01 0.00 0.01 0.01 0.01 0.01 0.01 0.01 0.01 0.01 0.01 0.02 0.02 0.01 0.01 0.01 0.01 0.01 0.01 0.01 0.01 0.02 0.03 0.03 0.03 0.02 0.02 0.02 0.04 0.05 0.04 0.04 0.02 0.02 0.03 0.03 0.03 0.03 0.06 0.07 0.06 0.07 0.10 0.11 0.10 0.09
0.03 0.01 0.01 0.00 0.01 0.01 0.02 0.03 0.04 0.03 0.02 0.02 0.02 0.01 0.01 0.01 0.01 0.01 0.01 0.01 0.01 0.01 0.00 0.01 0.01 0.03 0.03 0.04 0.03 0.03 0.04 0.04 0.04 0.03 0.03 0.01 0.01 0.02 0.02 0.03 0.04 0.05 0.04 0.04 0.05 0.04 0.05 0.06 0.06
0.02 0.01 0.01 0.01 0.00 0.00 0.01 0.02 0.05 0.07 0.06 0.04 0.02 0.01 0.01 0.01 0.01 0.02 0.02 0.02 0.01 0.00 0.00 0.01 0.01 0.02 0.04 0.05 0.04 0.04 0.04 0.03 0.03 0.02 0.02 0.01 0.01 0.02 0.03 0.05 0.07 0.06 0.05 0.05 0.06 0.04 0.03 0.04 0.04
0.03 0.01 0.01 0.01 0.01 0.00 0.00 0.01 0.02 0.03 0.04 0.04 0.02 0.02 0.02 0.01 0.01 0.01 0.01 0.01 0.00 0.00 0.00 0.01 0.01 0.02 0.04 0.06 0.05 0.04 0.04 0.04 0.03 0.03 0.03 0.02 0.01 0.02 0.03 0.03 0.03 0.04 0.04 0.04 0.04 0.04 0.04 0.03 0.04
0.02 0.01 0.00 0.01 0.01 0.01 0.01 0.00 0.01 0.01 0.01 0.01 0.01 0.01 0.02 0.02 0.01 0.01 0.01 0.00 0.00 0.00 0.00 0.01 0.01 0.01 0.03 0.07 0.05 0.03 0.03 0.03 0.03 0.04 0.03 0.02 0.02 0.01 0.02 0.02 0.03 0.04 0.05 0.05 0.04 0.04 0.03 0.03 0.04
0.01 0.01 0.01 0.01 0.01 0.01 0.01 0.01 0.01 0.01 0.01 0.00 0.00 0.00 0.00 0.01 0.01 0.01 0.01 0.01 0.01 0.01 0.01 0.01 0.01 0.01 0.01 0.06 0.06 0.02 0.02 0.02 0.02 0.03 0.02 0.02 0.02 0.02 0.04 0.04 0.04 0.07 0.05 0.04 0.04 0.05 0.04 0.05 0.06
0.01 0.01 0.01 0.01 0.01 0.02 0.01 0.01 0.02 0.02 0.01 0.01 0.00 0.00 0.00 0.01 0.01 0.00 0.00 0.01 0.01 0.01 0.01 0.01 0.01 0.01 0.02 0.03 0.05 0.03 0.02 0.02 0.02 0.02 0.02 0.02 0.02 0.03 0.04 0.06 0.04 0.03 0.05 0.05 0.05 0.05 0.05 0.06 0.05
0.01 0.02 0.02 0.02 0.01 0.02 0.01 0.01 0.01 0.02 0.02 0.01 0.00 0.00 0.00 0.01 0.01 0.01 0.01 0.01 0.01 0.01 0.01 0.01 0.01 0.01 0.02 0.03 0.03 0.03 0.02 0.02 0.01 0.01 0.02 0.02 0.02 0.02 0.03 0.04 0.03 0.02 0.03 0.05 0.05 0.05 0.05 0.05 0.05
0.02 0.02 0.02 0.01 0.01 0.01 0.01 0.01 0.01 0.02 0.02 0.01 0.01 0.01 0.01 0.01 0.01 0.01 0.01 0.01 0.02 0.02 0.02 0.01 0.01 0.01 0.01 0.01 0.02 0.02 0.01 0.01 0.02 0.02 0.02 0.02 0.02 0.03 0.03 0.03 0.03 0.02 0.02 0.03 0.04 0.05 0.05 0.05 0.06
0.02 0.03 0.02 0.01 0.01 0.01 0.01 0.01 0.01 0.01 0.01 0.01 0.01 0.01 0.01 0.01 0.02 0.02 0.02 0.02 0.02 0.02 0.01 0.01 0.01 0.01 0.01 0.01 0.01 0.01 0.01 0.01 0.01 0.03 0.03 0.03 0.04 0.04 0.03 0.03 0.03 0.03 0.03 0.03 0.03 0.03 0.02 0.03 0.05
0.01 0.02 0.02 0.02 0.02 0.01 0.01 0.01 0.01 0.01 0.01 0.01 0.01 0.01 0.02 0.02 0.02 0.02 0.02 0.02 0.02 0.01 0.01 0.01 0.01 0.01 0.00 0.01 0.01 0.01 0.01 0.01 0.01 0.02 0.03 0.04 0.04 0.03 0.03 0.02 0.03 0.04 0.03 0.02 0.02 0.02 0.02 0.03 0.04
0.01 0.00 0.01 0.01 0.03 0.02 0.02 0.02 0.02 0.01 0.01 0.01 0.02 0.03 0.03 0.03 0.02 0.02 0.02 0.03 0.03 0.02 0.02 0.02 0.01 0.01 0.01 0.01 0.01 0.02 0.01 0.01 0.01 0.02 0.03 0.03 0.04 0.05 0.05 0.04 0.04 0.03 0.02 0.02 0.02 0.02 0.02 0.02 0.03
0.01 0.01 0.01 0.01 0.02 0.02 0.02 0.01 0.01 0.01 0.02 0.02 0.03 0.04 0.04 0.03 0.02 0.02 0.02 0.02 0.02 0.03 0.02 0.01 0.01 0.01 0.01 0.01 0.01 0.03 0.06 0.04 0.03 0.02 0.03 0.04 0.04 0.03 0.03 0.04 0.03 0.03 0.02 0.02 0.02 0.03 0.03 0.03 0.04
0.01 0.01 0.02 0.02 0.01 0.01 0.01 0.01 0.01 0.01 0.01 0.01 0.02 0.03 0.04 0.03 0.02 0.02 0.02 0.02 0.03 0.05 0.03 0.01 0.01 0.01 0.02 0.01 0.01 0.02 0.06 0.10 0.09 0.06 0.06 0.06 0.04 0.02 0.01 0.02 0.02 0.04 0.04 0.04 0.02 0.02 0.02 0.03 0.04
0.01 0.01 0.01 0.01 0.00 0.00 0.00 0.00 0.01 0.01 0.01 0.01 0.01 0.02 0.03 0.04 0.04 0.04 0.03 0.03 0.05 0.07 0.04 0.02 0.02 0.02 0.02 0.02 0.00 0.00 0.02 0.06 0.11 0.13 0.12 0.11 0.09 0.06 0.03 0.02 0.02 0.04 0.05 0.04 0.03 0.01 0.01 0.02 0.02
0.00 0.00 0.00 0.01 0.00 0.00 0.00 0.00 0.00 0.01 0.01 0.01 0.01 0.02 0.02 0.02 0.03 0.03 0.03 0.02 0.03 0.03 0.02 0.01 0.02 0.01 0.01 0.01 0.01 0.01 0.01 0.01 0.03 0.05 0.08 0.09 0.07 0.07 0.07 0.05 0.03 0.03 0.04 0.05 0.04 0.03 0.02 0.02 0.01
0.00 0.00 0.00 0.00 0.00 0.00 0.00 0.00 0.01 0.01 0.01 0.01 0.01 0.02 0.01 0.02 0.02 0.03 0.03 0.03 0.03 0.03 0.03 0.02 0.01 0.02 0.02 0.02 0.02 0.02 0.01 0.01 0.01 0.02 0.02 0.03 0.03 0.03 0.04 0.05 0.04 0.03 0.03 0.03 0.03 0.04 0.04 0.04 0.03
0.00 0.00 0.00 0.00 0.01 0.00 0.00 0.00 0.01 0.01 0.01 0.01 0.01 0.01 0.01 0.02 0.02 0.03 0.03 0.03 0.03 0.04 0.04 0.04 0.03 0.03 0.03 0.03 0.04 0.03 0.01 0.01 0.02 0.02 0.02 0.01 0.01 0.02 0.02 0.03 0.04 0.04 0.04 0.03 0.03 0.02 0.02 0.03 0.03
0.00 0.00 0.00 0.00 0.00 0.00 0.00 0.00 0.00 0.01 0.01 0.01 0.01 0.00 0.01 0.01 0.02 0.03 0.04 0.04 0.04 0.04 0.04 0.04 0.03 0.03 0.04 0.06 0.08 0.03 0.02 0.02 0.02 0.01 0.01 0.01 0.01 0.01 0.01 0.01 0.02 0.02 0.03 0.04 0.03 0.02 0.02 0.02 0.02
0.00 0.00 0.00 0.00 0.00 0.00 0.00 0.00 0.00 0.01 0.01 0.01 0.01 0.01 0.01 0.01 0.01 0.01 0.02 0.03 0.03 0.03 0.03 0.03 0.03 0.03 0.04 0.08 0.11 0.03 0.02 0.02 0.02 0.01 0.01 0.02 0.02 0.01 0.01 0.01 0.00 0.01 0.01 0.02 0.02 0.02 0.02 0.02 0.02
MSLP
1009.31 1010.25 1011.28 1012.24 1012.98 1013.41 1013.52 1013.37 1013.04 1012.65 1012.29 1012.01 1011.79 1011.60 1011.36 1011.03 1010.57 1009.96 1009.24 1008.44 1007.62 1006.79 1005.98 1005.22 1004.52 1003.89 1003.35 1002.89 1002.46 1001.97 1001.23 1000.07 998.29 995.78 992.53 988.72 984.65 980.77 977.59 975.59 975.08 976.14 978.65 982.25 986.47 990.77 994.67 997.83 1000.15
1009.75 1010.83 1011.94 1012.91 1013.58 1013.89 1013.85 1013.52 1013.01 1012.45 1011.94 1011.51 1011.18 1010.88 1010.58 1010.20 1009.73 1009.15 1008.51 1007.83 1007.15 1006.47 1005.82 1005.20 1004.59 1004.03 1003.53 1003.07 1002.64 1002.17 1001.50 1000.48 998.93 996.73 993.89 990.52 986.91 983.45 980.60 978.80 978.33 979.26 981.50 984.72 988.49 992.31 995.77 998.57 1000.61
1010.29 1011.47 1012.60 1013.52 1014.10 1014.28 1014.09 1013.60 1012.95 1012.27 1011.64 1011.11 1010.68 1010.29 1009.91 1009.47 1008.97 1008.41 1007.81 1007.23 1006.67 1006.15 1005.66 1005.18 1004.69 1004.21 1003.74 1003.30 1002.88 1002.43 1001.86 1001.02 999.77 998.01 995.70 992.95 989.97 987.10 984.71 983.20 982.80 983.59 985.47 988.18 991.33 994.51 997.37 999.66 1001.32
1010.91 1012.11 1013.21 1014.03 1014.49 1014.53 1014.20 1013.60 1012.86 1012.10 1011.42 1010.85 1010.36 1009.92 1009.47 1008.99 1008.43 1007.85 1007.28 1006.75 1006.30 1005.91 1005.56 1005.22 1004.85 1004.45 1004.01 1003.58 1003.15 1002.73 1002.24 1001.59 1000.67 999.37 997.65 995.59 993.32 991.12 989.28 988.11 987.81 988.44 989.93 992.05 994.52 996.99 999.19 1000.93 1002.18
1011.54 1012.71 1013.71 1014.41 1014.71 1014.61 1014.17 1013.50 1012.72 1011.97 1011.30 1010.75 1010.27 1009.81 1009.34 1008.80 1008.21 1007.60 1007.03 1006.53 1006.14 1005.85 1005.61 1005.39 1005.11 1004.77 1004.36 1003.92 1003.47 1003.04 1002.61 1002.11 1001.47 1000.60 999.46 998.05 996.49 994.95 993.65 992.82 992.62 993.10 994.21 995.78 997.58 999.37 1000.94 1002.17 1003.05
1012.15 1013.23 1014.10 1014.62 1014.77 1014.53 1014.01 1013.31 1012.55 1011.86 1011.27 1010.79 1010.37 1009.96 1009.49 1008.94 1008.32 1007.69 1007.10 1006.61 1006.26 1006.02 1005.86 1005.71 1005.50 1005.19 1004.79 1004.32 1003.83 1003.37 1002.95 1002.55 1002.13 1001.60 1000.92 1000.07 999.12 998.15 997.32 996.80 996.69 997.03 997.81 998.89 1000.11 1001.33 1002.38 1003.20 1003.81
1012.72 1013.67 1014.37 1014.71 1014.69 1014.34 1013.75 1013.05 1012.35 1011.76 1011.29 1010.94 1010.63 1010.30 1009.88 1009.35 1008.74 1008.09 1007.49 1007.00 1006.65 1006.43 1006.31 1006.19 1006.01 1005.71 1005.30 1004.80 1004.26 1003.75 1003.31 1002.95 1002.64 1002.34 1001.99 1001.56 1001.05 1000.52 1000.05 999.75 999.71 999.94 1000.44 1001.14 1001.93 1002.71 1003.40 1003.95 1004.39
1013.23 1014.03 1014.55 1014.72 1014.55 1014.10 1013.47 1012.79 1012.16 1011.68 1011.35 1011.13 1010.95 1010.73 1010.39 1009.93 1009.35 1008.72 1008.11 1007.61 1007.25 1007.03 1006.89 1006.78 1006.60 1006.31 1005.88 1005.34 1004.76 1004.20 1003.72 1003.35 1003.10 1002.93 1002.77 1002.60 1002.38 1002.13 1001.89 1001.74 1001.71 1001.85 1002.15 1002.58 1003.08 1003.59 1004.05 1004.46 1004.83
1013.68 1014.35 1014.70 1014.72 1014.43 1013.89 1013.23 1012.57 1012.03 1011.64 1011.43 1011.33 1011.27 1011.17 1010.93 1010.55 1010.03 1009.44 1008.86 1008.36 1007.98 1007.73 1007.57 1007.43 1007.23 1006.92 1006.48 1005.93 1005.33 1004.74 1004.23 1003.85 1003.61 1003.47 1003.41 1003.35 1003.28 1003.19 1003.07 1002.98 1002.95 1003.01 1003.18 1003.45 1003.77 1004.13 1004.49 1004.85 1005.23
1014.08 1014.63 1014.87 1014.77 1014.39 1013.81 1013.14 1012.50 1012.00 1011.68 1011.55 1011.54 1011.57 1011.56 1011.42 1011.13 1010.69 1010.16 1009.61 1009.12 1008.72 1008.44 1008.23 1008.05 1007.83 1007.51 1007.07 1006.53 1005.95 1005.37 1004.86 1004.47 1004.23 1004.10 1004.05 1004.03 1004.01 1003.95 1003.88 1003.80 1003.75 1003.77 1003.86 1004.03 1004.27 1004.57 1004.91 1005.29 1005.69
1014.45 1014.93 1015.08 1014.93 1014.51 1013.91 1013.25 1012.63 1012.15 1011.87 1011.76 1011.78 1011.86 1011.90 1011.83 1011.62 1011.27 1010.81 1010.31 1009.83 1009.42 1009.09 1008.84 1008.61 1008.35 1008.03 1007.61 1007.11 1006.57 1006.05 1005.58 1005.22 1004.97 1004.84 1004.78 1004.76 1004.73 1004.68 1004.60 1004.51 1004.45 1004.43 1004.49 1004.62 1004.85 1005.14 1005.49 1005.88 1006.30
1014.79 1015.23 1015.37 1015.21 1014.81 1014.24 1013.61 1013.02 1012.54 1012.24 1012.11 1012.11 1012.17 1012.22 1012.19 1012.04 1011.75 1011.36 1010.91 1010.46 1010.04 1009.68 1009.37 1009.08 1008.79 1008.46 1008.07 1007.63 1007.17 1006.72 1006.33 1006.02 1005.81 1005.68 1005.61 1005.57 1005.53 1005.46 1005.38 1005.28 1005.21 1005.19 1005.25 1005.39 1005.61 1005.92 1006.28 1006.67 1007.09
1015.11 1015.55 1015.71 1015.61 1015.28 1014.79 1014.23 1013.67 1013.19 1012.85 1012.65 1012.58 1012.58 1012.59 1012.55 1012.43 1012.20 1011.86 1011.46 1011.03 1010.60 1010.20 1009.83 1009.50 1009.17 1008.83 1008.47 1008.09 1007.71 1007.36 1007.05 1006.81 1006.64 1006.54 1006.47 1006.42 1006.36 1006.29 1006.21 1006.13 1006.09 1006.09 1006.17 1006.33 1006.57 1006.88 1007.24 1007.62 1007.99
1015.41 1015.88 1016.11 1016.11 1015.91 1015.54 1015.07 1014.56 1014.09 1013.70 1013.42 1013.24 1013.14 1013.08 1013.00 1012.88 1012.67 1012.38 1012.01 1011.60 1011.17 1010.73 1010.31 1009.92 1009.55 1009.19 1008.85 1008.53 1008.22 1007.94 1007.71 1007.53 1007.40 1007.31 1007.24 1007.19 1007.13 1007.07 1007.02 1006.98 1006.98 1007.03 1007.14 1007.33 1007.59 1007.90 1008.23 1008.57 1008.89
1015.72 1016.22 1016.54 1016.68 1016.62 1016.41 1016.06 1015.63 1015.18 1014.75 1014.38 1014.09 1013.88 1013.73 1013.59 1013.45 1013.25 1012.99 1012.65 1012.25 1011.80 1011.33 1010.86 1010.41 1010.00 1009.62 1009.28 1008.98 1008.72 1008.49 1008.30 1008.15 1008.03 1007.93 1007.85 1007.79 1007.73 1007.69 1007.67 1007.68 1007.73 1007.83 1007.99 1008.21 1008.48 1008.77 1009.08 1009.37 1009.63
1016.04 1016.57 1016.99 1017.27 1017.39 1017.34 1017.14 1016.80 1016.38 1015.92 1015.48 1015.09 1014.78 1014.54 1014.34 1014.17 1013.97 1013.72 1013.40 1013.00 1012.54 1012.04 1011.53 1011.04 1010.58 1010.18 1009.83 1009.53 1009.29 1009.07 1008.88 1008.72 1008.57 1008.43 1008.31 1008.21 1008.13 1008.09 1008.09 1008.14 1008.24 1008.39 1008.58 1008.82 1009.09 1009.37 1009.65 1009.90 1010.13
1016.39 1016.96 1017.47 1017.89 1018.17 1018.29 1018.22 1017.98 1017.60 1017.13 1016.64 1016.18 1015.78 1015.46 1015.21 1015.01 1014.81 1014.57 1014.26 1013.87 1013.40 1012.88 1012.34 1011.81 1011.33 1010.90 1010.54 1010.24 1009.98 1009.75 1009.53 1009.31 1009.09 1008.88 1008.68 1008.51 1008.39 1008.32 1008.31 1008.37 1008.49 1008.67 1008.88 1009.12 1009.37 1009.63 1009.89 1010.12 1010.33
1016.81 1017.41 1018.00 1018.54 1018.96 1019.21 1019.27 1019.11 1018.77 1018.30 1017.77 1017.25 1016.79 1016.41 1016.13 1015.91 1015.71 1015.48 1015.19 1014.81 1014.34 1013.81 1013.26 1012.71 1012.21 1011.78 1011.42 1011.11 1010.84 1010.59 1010.32 1010.03 1009.72 1009.40 1009.09 1008.83 1008.63 1008.49 1008.45 1008.49 1008.59 1008.75 1008.95 1009.17 1009.39 1009.63 1009.85 1010.08 1010.29
1017.30 1017.93 1018.59 1019.23 1019.75 1020.11 1020.24 1020.14 1019.83 1019.35 1018.79 1018.22 1017.72 1017.32 1017.01 1016.79 1016.60 1016.39 1016.11 1015.74 1015.29 1014.76 1014.21 1013.67 1013.17 1012.76 1012.41 1012.12 1011.85 1011.57 1011.27 1010.91 1010.51 1010.09 1009.67 1009.30 1008.99 1008.78 1008.67 1008.64 1008.70 1008.81 1008.96 1009.12 1009.30 1009.49 1009.69 1009.90 1010.12
1017.89 1018.55 1019.27 1019.97 1020.57 1020.98 1021.15 1021.07 1020.74 1020.24 1019.65 1019.05 1018.52 1018.10 1017.80 1017.58 1017.41 1017.21 1016.95 1016.60 1016.15 1015.64 1015.10 1014.58 1014.12 1013.73 1013.43 1013.17 1012.93 1012.67 1012.34 1011.95 1011.49 1010.98 1010.47 1010.00 1009.60 1009.30 1009.09 1008.99 1008.97 1009.00 1009.07 1009.15 1009.26 1009.38 1009.53 1009.71 1009.94
1018.55 1019.26 1020.03 1020.77 1021.40 1021.83 1022.00 1021.89 1021.53 1020.98 1020.34 1019.71 1019.16 1018.73 1018.43 1018.23 1018.08 1017.91 1017.67 1017.33 1016.89 1016.39 1015.87 1015.37 1014.95 1014.61 1014.36 1014.16 1013.97 1013.75 1013.45 1013.05 1012.57 1012.03 1011.47 1010.94 1010.47 1010.08 1009.80 1009.61 1009.50 1009.44 1009.40 1009.39 1009.40 1009.43 1009.51 1009.64 1009.84
1019.24 1020.02 1020.84 1021.62 1022.26 1022.67 1022.79 1022.63 1022.20 1021.59 1020.91 1020.23 1019.67 1019.23 1018.94 1018.76 1018.62 1018.46 1018.23 1017.90 1017.47 1016.97 1016.46 1015.99 1015.60 1015.31 1015.11 1014.97 1014.85 1014.68 1014.44 1014.09 1013.63 1013.10 1012.54 1011.99 1011.49 1011.06 1010.72 1010.46 1010.27 1010.11 1009.98 1009.86 1009.76 1009.69 1009.68 1009.73 1009.86
1019.91 1020.77 1021.64 1022.45 1023.09 1023.47 1023.55 1023.31 1022.81 1022.14 1021.40 1020.69 1020.10 1019.66 1019.38 1019.20 1019.08 1018.93 1018.70 1018.36 1017.92 1017.41 1016.90 1016.43 1016.05 1015.79 1015.63 1015.54 1015.47 1015.37 1015.19 1014.90 1014.50 1014.03 1013.50 1012.98 1012.49 1012.06 1011.71 1011.41 1011.15 1010.93 1010.71 1010.49 1010.29 1010.12 1010.00 1009.95 1009.99
1020.49 1021.43 1022.37 1023.21 1023.84 1024.19 1024.22 1023.93 1023.37 1022.65 1021.86 1021.13 1020.53 1020.09 1019.81 1019.63 1019.51 1019.36 1019.11 1018.76 1018.30 1017.77 1017.24 1016.75 1016.36 1016.09 1015.94 1015.87 1015.82 1015.76 1015.63 1015.40 1015.07 1014.66 1014.21 1013.74 1013.31 1012.91 1012.57 1012.27 1011.99 1011.72 1011.44 1011.15 1010.86 1010.59 1010.38 1010.24 1010.18
1020.92 1021.94 1022.93 1023.81 1024.45 1024.79 1024.79 1024.47 1023.88 1023.13 1022.33 1021.59 1020.99 1020.55 1020.27 1020.11 1019.97 1019.81 1019.54 1019.17 1018.68 1018.12 1017.55 1017.02 1016.59 1016.29 1016.11 1016.01 1015.95 1015.89 1015.78 1015.59 1015.31 1014.96 1014.58 1014.19 1013.82 1013.48 1013.18 1012.91 1012.64 1012.35 1012.05 1011.71 1011.36 1011.03 1010.73 1010.50 1010.35
1021.17 1022.25 1023.29 1024.19 1024.85 1025.20 1025.21 1024.89 1024.31 1023.57 1022.80 1022.08 1021.50 1021.08 1020.81 1020.63 1020.49 1020.30 1020.01 1019.61 1019.09 1018.50 1017.89 1017.33 1016.85 1016.49 1016.24 1016.08 1015.97 1015.86 1015.73 1015.53 1015.27 1014.97 1014.64 1014.31 1014.01 1013.73 1013.49 1013.26 1013.02 1012.75 1012.43 1012.08 1011.71 1011.33 1010.98 1010.69 1010.46
1021.24 1022.34 1023.41 1024.33 1025.01 1025.38 1025.42 1025.14 1024.61 1023.94 1023.22 1022.57 1022.03 1021.63 1021.37 1021.19 1021.03 1020.83 1020.52 1020.09 1019.56 1018.95 1018.31 1017.71 1017.18 1016.75 1016.43 1016.19 1015.99 1015.81 1015.62 1015.38 1015.11 1014.81 1014.51 1014.22 1013.97 1013.75 1013.56 1013.37 1013.16 1012.91 1012.61 1012.27 1011.89 1011.49 1011.12 1010.80 1010.53
1021.17 1022.26 1023.31 1024.23 1024.92 1025.32 1025.40 1025.19 1024.76 1024.18 1023.56 1022.98 1022.51 1022.16 1021.91 1021.73 1021.56 1021.33 1021.01 1020.57 1020.03 1019.42 1018.78 1018.17 1017.61 1017.14 1016.75 1016.42 1016.14 1015.87 1015.59 1015.29 1014.98 1014.66 1014.36 1014.09 1013.87 1013.68 1013.53 1013.36 1013.18 1012.95 1012.67 1012.33 1011.95 1011.57 1011.19 1010.86 1010.58
1021.01 1022.06 1023.06 1023.94 1024.61 1025.03 1025.16 1025.03 1024.71 1024.25 1023.75 1023.28 1022.88 1022.58 1022.36 1022.18 1021.99 1021.75 1021.42 1020.99 1020.46 1019.87 1019.27 1018.67 1018.12 1017.63 1017.20 1016.82 1016.46 1016.11 1015.76 1015.39 1015.03 1014.68 1014.37 1014.10 1013.88 1013.70 1013.55 1013.40 1013.22 1012.99 1012.71 1012.38 1012.01 1011.62 1011.25 1010.93 1010.65
1020.88 1021.83 1022.75 1023.55 1024.17 1024.57 1024.74 1024.69 1024.47 1024.14 1023.77 1023.41 1023.11 1022.86 1022.66 1022.48 1022.28 1022.02 1021.69 1021.27 1020.78 1020.24 1019.68 1019.14 1018.63 1018.16 1017.73 1017.33 1016.93 1016.53 1016.13 1015.72 1015.31 1014.94 1014.61 1014.33 1014.10 1013.92 1013.76 1013.60 1013.40 1013.15 1012.85 1012.50 1012.12 1011.73 1011.36 1011.03 1010.77
Thickness
5810 5808 5805 5795 5779 5762 5758 5769 5779 5780 5782 5789 5792 5787 5778 5772 5766 5762 5784 5794 5794 5792 5791 5790 5788 5787 5785 5785 5784 5783 5783 5782 5782 5781 5781 5780 5780 5780 5781 5781 5780 5779 5777 5776 5774 5773 5771 5770 5769
5812 5809 5801 5788 5767 5748 5756 5775 5778 5784 5790 5795 5793 5789 5781 5777 5783 5783 5788 5793 5794 5792 5790 5789 5788 5786 5785 5784 5783 5782 5781 5781 5780 5780 5780 5779 5779 5780 5780 5779 5778 5777 5777 5775 5774 5772 5771 5769 5768
5813 5810 5794 5779 5764 5755 5763 5779 5784 5791 5797 5795 5789 5789 5783 5780 5786 5787 5792 5794 5793 5791 5789 5788 5787 5786 5784 5782 5782 5781 5780 5780 5779 5779 5779 5779 5778 5779 5779 5778 5777 5777 5776 5775 5774 5772 5770 5769 5768
5811 5801 5791 5774 5767 5775 5780 5786 5791 5790 5794 5796 5790 5782 5786 5792 5792 5793 5795 5794 5791 5789 5788 5787 5786 5785 5783 5782 5781 5780 5779 5779 5778 5778 5778 5778 5777 5778 5777 5777 5776 5775 5775 5774 5773 5771 5770 5769 5768
5809 5793 5776 5766 5772 5784 5792 5795 5795 5789 5789 5791 5788 5778 5779 5791 5797 5797 5795 5793 5789 5787 5787 5785 5785 5783 5782 5781 5780 5780 5779 5778 5777 5777 5776 5776 5776 5776 5775 5775 5775 5774 5774 5773 5772 5771 5769 5768 5767
5798 5787 5766 5760 5772 5786 5793 5798 5795 5790 5789 5790 5787 5778 5778 5791 5794 5794 5793 5791 5789 5786 5785 5784 5783 5782 5781 5781 5779 5779 5778 5777 5777 5776 5776 5775 5775 5774 5774 5774 5774 5773 5773 5772 5771 5770 5769 5768 5767
5792 5780 5769 5770 5772 5782 5792 5800 5794 5789 5788 5790 5791 5778 5779 5788 5792 5793 5791 5789 5787 5786 5784 5783 5782 5781 5780 5780 5778 5777 5777 5776 5776 5775 5775 5774 5774 5773 5773 5773 5773 5772 5772 5771 5770 5770 5769 5768 5766
5802 5784 5773 5771 5774 5781 5797 5800 5800 5795 5792 5801 5797 5779 5777 5788 5793 5792 5789 5786 5785 5784 5783 5782 5781 5780 5779 5778 5777 5777 5776 5775 5775 5774 5773 5773 5772 5772 5772 5772 5771 5771 5771 5770 5769 5769 5768 5767 5766
5808 5779 5768 5776 5779 5786 5799 5797 5800 5805 5799 5798 5798 5793 5793 5795 5794 5789 5784 5782 5781 5782 5781 5781 5780 5779 5778 5777 5776 5775 5775 5774 5774 5773 5773 5772 5771 5771 5770 5770 5770 5770 5770 5769 5768 5768 5767 5766 5765
5799 5775 5781 5795 5796 5795 5799 5799 5798 5796 5790 5789 5790 5794 5797 5794 5790 5785 5781 5778 5778 5778 5780 5780 5779 5778 5777 5777 5775 5774 5774 5773 5773 5772 5772 5771 5770 5770 5770 5769 5769 5769 5768 5768 5767 5766 5766 5765 5764
5801 5789 5798 5805 5808 5806 5801 5800 5802 5792 5784 5789 5789 5790 5792 5790 5787 5784 5781 5780 5779 5780 5780 5780 5779 5778 5776 5775 5775 5774 5773 5773 5772 5771 5771 5770 5769 5769 5768 5768 5767 5767 5767 5766 5766 5765 5764 5763 5763
5803 5804 5808 5808 5813 5808 5803 5801 5798 5795 5795 5803 5801 5798 5793 5789 5786 5784 5782 5781 5781 5780 5780 5780 5779 5778 5777 5776 5775 5774 5773 5772 5771 5771 5770 5770 5769 5768 5768 5767 5766 5766 5765 5764 5764 5763 5763 5763 5763
5803 5805 5812 5814 5813 5810 5806 5800 5798 5797 5803 5805 5802 5797 5792 5788 5787 5787 5786 5784 5783 5781 5781 5781 5780 5778 5777 5776 5775 5774 5773 5773 5772 5771 5770 5770 5768 5767 5767 5766 5765 5764 5764 5763 5762 5762 5762 5762 5762
5807 5808 5810 5811 5811 5811 5802 5799 5798 5796 5803 5800 5797 5793 5791 5788 5787 5786 5785 5783 5783 5782 5782 5782 5780 5779 5778 5777 5776 5775 5774 5773 5772 5771 5770 5769 5768 5767 5766 5765 5764 5764 5763 5762 5761 5761 5760 5760 5760
5812 5802 5803 5806 5808 5807 5803 5790 5793 5800 5801 5796 5794 5792 5790 5789 5788 5786 5786 5785 5785 5784 5783 5782 5782 5780 5778 5777 5776 5775 5774 5773 5772 5771 5770 5769 5768 5767 5766 5765 5764 5763 5763 5762 5760 5760 5759 5759 5759
5803 5790 5781 5798 5804 5805 5794 5775 5794 5801 5798 5792 5791 5791 5789 5788 5789 5790 5789 5788 5787 5785 5784 5783 5783 5780 5778 5777 5776 5775 5774 5773 5772 5771 5770 5769 5768 5767 5766 5764 5763 5762 5762 5761 5759 5758 5757 5756 5756
5782 5771 5775 5788 5803 5802 5791 5780 5794 5800 5796 5790 5790 5789 5789 5788 5789 5790 5791 5789 5788 5787 5785 5782 5782 5780 5778 5777 5776 5774 5773 5772 5771 5770 5770 5769 5768 5767 5766 5765 5763 5762 5761 5759 5759 5756 5755 5754 5753
5772 5773 5776 5780 5796 5796 5787 5785 5793 5797 5794 5790 5790 5789 5788 5787 5788 5791 5791 5790 5788 5786 5785 5782 5781 5780 5778 5777 5775 5773 5772 5771 5771 5770 5769 5768 5767 5767 5765 5764 5763 5762 5760 5758 5756 5755 5754 5752 5751
5788 5780 5777 5786 5800 5792 5784 5784 5789 5793 5791 5789 5788 5787 5787 5788 5791 5792 5791 5790 5787 5785 5783 5781 5779 5778 5777 5775 5772 5770 5768 5769 5769 5769 5768 5767 5766 5765 5764 5763 5761 5760 5758 5757 5755 5754 5752 5750 5750
5790 5780 5779 5789 5799 5792 5783 5783 5791 5793 5793 5793 5791 5789 5788 5787 5788 5789 5789 5788 5786 5783 5782 5780 5778 5777 5776 5775 5773 5771 5769 5768 5768 5767 5767 5766 5765 5764 5763 5761 5760 5758 5756 5755 5754 5752 5749 5748 5748
5787 5782 5783 5783 5790 5791 5783 5776 5784 5792 5796 5795 5794 5793 5792 5790 5788 5788 5787 5786 5785 5783 5781 5780 5778 5776 5776 5775 5773 5771 5768 5767 5765 5764 5764 5764 5763 5762 5761 5759 5758 5757 5755 5753 5752 5750 5748 5745 5745
5781 5798 5794 5788 5774 5764 5773 5752 5775 5784 5787 5791 5792 5793 5793 5793 5792 5789 5788 5786 5785 5784 5783 5780 5777 5776 5775 5773 5771 5768 5764 5761 5761 5761 5761 5761 5761 5760 5759 5758 5756 5754 5753 5751 5750 5749 5747 5745 5742
5794 5802 5794 5785 5773 5762 5766 5754 5765 5781 5780 5787 5793 5796 5797 5796 5794 5792 5790 5788 5787 5785 5782 5779 5776 5774 5773 5771 5769 5766 5763 5761 5760 5760 5759 5758 5758 5758 5757 5755 5754 5752 5750 5749 5748 5747 5746 5744 5741
5805 5793 5783 5770 5760 5746 5759 5753 5757 5773 5784 5791 5797 5800 5800 5799 5796 5794 5792 5789 5786 5784 5781 5778 5775 5772 5771 5769 5767 5764 5761 5758 5757 5756 5755 5754 5754 5754 5753 5752 5751 5749 5748 5746 5746 5745 5743 5742 5740
5795 5769 5745 5741 5733 5739 5760 5756 5762 5790 5798 5799 5800 5801 5802 5800 5796 5792 5790 5787 5784 5781 5779 5776 5773 5770 5768 5765 5764 5762 5759 5756 5754 5753 5751 5750 5749 5749 5749 5748 5747 5746 5745 5744 5743 5741 5740 5739 5737
5786 5773 5745 5733 5730 5740 5756 5754 5776 5799 5805 5806 5805 5804 5802 5799 5796 5793 5791 5788 5785 5781 5778 5774 5771 5768 5766 5764 5761 5759 5757 5754 5753 5751 5749 5747 5746 5746 5746 5745 5743 5742 5741 5740 5739 5737 5737 5736 5734
5782 5772 5773 5749 5743 5736 5746 5761 5782 5800 5800 5802 5801 5800 5798 5797 5796 5794 5791 5789 5785 5781 5777 5773 5769 5767 5764 5762 5759 5757 5754 5752 5750 5749 5747 5745 5744 5743 5742 5741 5740 5739 5737 5736 5734 5733 5732 5731 5730
5795 5778 5759 5745 5732 5728 5742 5753 5762 5782 5789 5794 5795 5795 5795 5795 5794 5793 5791 5788 5785 5781 5777 5773 5770 5766 5763 5760 5757 5755 5752 5750 5748 5746 5744 5742 5741 5740 5738 5737 5735 5734 5733 5731 5730 5728 5728 5726 5725
5781 5772 5757 5742 5741 5728 5726 5746 5785 5786 5791 5790 5792 5793 5793 5793 5792 5790 5789 5787 5783 5779 5775 5771 5768 5765 5762 5758 5755 5752 5749 5747 5745 5743 5741 5739 5738 5736 5734 5733 5731 5729 5728 5727 5725 5724 5722 5721 5720
5789 5776 5761 5749 5740 5732 5729 5747 5794 5793 5794 5792 5791 5791 5791 5790 5789 5787 5786 5783 5780 5777 5773 5770 5767 5763 5760 5757 5753 5749 5746 5744 5742 5740 5738 5736 5734 5733 5731 5729 5727 5725 5723 5722 5720 5718 5718 5716 5715